Simultaneous Nadir Overpasses (SNOs) Predictions

Prediction of SNOs between NOAA-19 and METOP-C Satellite Orbit:

Table of predicted SNOs for the next 14.0 days since TLE Epoch: 12/31/2022
Index Date (NOAA-19) Time (NOAA-19) Lat,Lon (NOAA-19) SZA (NOAA-19 ) Date (METOP-C) Time (METOP-C) Lat,Lon (METOP-C) SZA (METOP-C ) Distance(km) Time Diff (sec)
1 01/09/2023 23:26:48 80.92,-136.76 104.31 01/09/2023 23:27:51 80.93,-136.67 104.35 1.94 63
2 01/10/2023 00:17:53 -80.92, 30.29 75.72 01/10/2023 00:18:32 -80.91, 30.30 75.71 1.00 39
3 01/10/2023 01:08:47 80.92,-162.06 104.32 01/10/2023 01:09:13 80.92,-162.17 104.32 1.97 26
4 01/10/2023 01:59:52 -80.92, 4.98 75.71 01/10/2023 01:59:53 -80.92, 5.16 75.69 3.11 1
5 01/10/2023 02:50:47 80.92, 172.27 104.29 01/10/2023 02:50:35 80.91, 172.33 104.29 1.26 12
6 01/10/2023 03:41:51 -80.92, -20.32 75.71 01/10/2023 03:41:15 -80.91, -20.34 75.73 0.74 36
7 01/10/2023 04:32:45 80.92, 147.34 104.32 01/10/2023 04:31:56 80.92, 147.19 104.30 2.81 49



Historial Predications of SNOs between NOAA-19 and METOP-C
